Home > Weather > Rennes > Past weeks

Flag for France Weather for the Past 2 Weeks in Rennes, Brittany, France

Now
63 °F

Mild.


Feels Like: 63 °F
Forecast: 52 / 69 °F
Wind: 6 mph from East

Location: Rennes Airport

Current Time: May 5, 2016 at 10:10:05 PM

Latest Report: May 5, 2016 at 9:30 PM


Visibility: N/A

Pressure: 29.89 "Hg

Humidity: 52%

Dew Point: 45 °F

Location of RennesLocation

Historic Weather in Rennes — Graph

°F

Rennes Temperature Yesterday

Maximum temperature yesterday: 66 °F (at 3:30 PM)
Minimum temperature yesterday: 36 °F (at 7:00 AM)
Average temperature yesterday: 53 °F

High & Low Weather Summary for the Past Weeks

 TemperatureHumidityPressure
High73 °F (May 5, 5:30 PM)100% (Apr 22, 1:00 AM)30.42 "Hg (Apr 22, 1:00 AM)
Low32 °F (Apr 27, 7:00 AM)31% (May 5, 3:30 PM)29.83 "Hg (Apr 26, 5:00 AM)
Average50 °F72%30.12 "Hg
* Reported Apr 20 9:00 PM — May 5 9:00 PM, Rennes, Weather by CustomWeather, © 2016

Note: Actual official high and low records may vary slightly from our data, if they occured in-between our weather recording intervals... More about our weather records

Advertising

Rennes Weather History for the Previous 24 Hours

Scroll right to see more
 ConditionsComfort  
Time TempWeatherWind HumidityBarometerVisibility
9:00 PM
Thu, May 5
64 °FMild.6 mph49%29.89 "HgN/A
8:30 PM68 °FMild.9 mph40%29.86 "HgN/A
8:00 PM70 °FMild.9 mph38%29.86 "HgN/A
7:30 PM70 °FMild.9 mph35%29.89 "HgN/A
7:00 PM72 °FMild.13 mph31%29.89 "HgN/A
6:30 PM72 °FMild.13 mph31%29.89 "HgN/A
6:00 PM72 °FMild.12 mph31%29.89 "HgN/A
5:30 PM73 °FMild.14 mph31%29.89 "HgN/A
5:00 PM72 °FMild.13 mph31%29.92 "HgN/A
4:30 PM72 °FMild.13 mph31%29.92 "HgN/A
4:00 PM72 °FMild.13 mph33%29.92 "HgN/A
3:30 PM72 °FMild.12 mph31%29.95 "HgN/A
3:00 PM70 °FMild.13 mph33%29.95 "HgN/A
2:30 PM70 °FMild.14 mph35%29.95 "HgN/A
2:00 PM70 °FMild.13 mph40%29.98 "HgN/A
1:30 PM68 °FMild.13 mph40%29.98 "HgN/A
1:00 PM68 °FMild.14 mph40%30.01 "HgN/A
12:30 PM66 °FMild.13 mph40%30.01 "HgN/A
12:00 PM64 °FMild.14 mph43%30.01 "HgN/A
11:30 AM64 °FMild.12 mph43%30.01 "HgN/A
11:00 AM61 °FRefreshingly cool.10 mph52%30.04 "HgN/A
10:30 AM61 °FRefreshingly cool.9 mph52%30.04 "HgN/A
10:00 AM57 °FRefreshingly cool.9 mph51%30.04 "HgN/A
9:30 AM55 °FRefreshingly cool.9 mph55%30.07 "HgN/A
9:00 AM54 °FCool.7 mph58%30.07 "HgN/A
8:30 AM52 °FCool.7 mph62%30.07 "HgN/A
8:00 AM46 °FCool.No wind82%30.07 "HgN/A
7:30 AM45 °FQuite cool.6 mph76%30.07 "HgN/A
7:00 AM45 °FQuite cool.3 mph76%30.07 "HgN/A
6:30 AM43 °FQuite cool.No wind81%30.07 "HgN/A
6:00 AM43 °FQuite cool.2 mph76%30.07 "HgN/A
5:30 AM45 °FQuite cool.6 mph71%30.07 "HgN/A
5:00 AM46 °FCool.5 mph66%30.09 "HgN/A
4:30 AM48 °FCool.3 mph66%30.09 "HgN/A
4:00 AM48 °FCool.6 mph66%30.09 "HgN/A
3:30 AM48 °FCool.7 mph66%30.09 "HgN/A
3:00 AM50 °FCool.6 mph62%30.09 "HgN/A
2:30 AM50 °FCool.7 mph62%30.12 "HgN/A
2:00 AM50 °FCool.5 mph62%30.12 "HgN/A
1:30 AM52 °FCool.5 mph62%30.15 "HgN/A
1:00 AM54 °FCool.7 mph58%30.15 "HgN/A
12:30 AM54 °FCool.6 mph58%30.15 "HgN/A
12:00 AM54 °FCool.8 mph58%30.15 "HgN/A
11:30 PM
Wed, May 4
54 °FCool.7 mph58%30.15 "HgN/A
11:00 PM54 °FCool.7 mph58%30.15 "HgN/A
10:30 PM55 °FRefreshingly cool.6 mph55%30.15 "HgN/A
10:00 PM57 °FRefreshingly cool.5 mph51%30.15 "HgN/A
Weather by CustomWeather, © 2016

See weather overviewHow to use our weather pages